ISS (ZARYA) 1 25544U 98067A 26167.86697329 .00007968 00000+0 15124-3 0 9997 2 25544 51.6339 301.6783 0004749 194.3570 165.7284 15.49265361571705 POISK 1 36086U 09060A 26167.86697329 .00007968 00000+0 15124-3 0 9995 2 36086 51.6339 301.6783 0004749 194.3570 165.7284 15.49265361571371 CSS (TIANHE) 1 48274U 21035A 26167.84906358 .00020239 00000+0 23909-3 0 9992 2 48274 41.4698 324.0596 0007460 74.3419 285.8242 15.60797895293117 ISS (NAUKA) 1 49044U 21066A 26167.86697329 .00007968 00000+0 15124-3 0 9993 2 49044 51.6339 301.6783 0004749 194.3570 165.7284 15.49265361571425 FREGAT DEB 1 49271U 11037PF 26151.14915702 .00018955 00000+0 30994-1 0 9992 2 49271 51.6227 53.0895 0914379 245.3590 104.9405 12.41880577222933 CSS (WENTIAN) 1 53239U 22085A 26167.46514383 .00018830 00000+0 22290-3 0 9992 2 53239 41.4697 326.3961 0007507 71.1015 289.0637 15.60781847288234 CSS (MENGTIAN) 1 54216U 22143A 26167.84906358 .00020239 00000+0 23909-3 0 9996 2 54216 41.4698 324.0596 0007460 74.3419 285.8242 15.60797895293750 HRC MONOBLOCK CAMERA 1 66052U 98067XR 26167.56658542 .00064087 00000+0 44275-3 0 9991 2 66052 51.6253 282.3609 0001507 292.6780 67.4059 15.73928555 37900 SZ-21 MODULE 1 66515U 25246C 26166.69531253 .00040520 00000+0 25047-3 0 9998 2 66515 41.4723 316.6164 0006492 340.9855 19.0747 15.76287551 33504 SOYUZ-MS 28 1 66664U 25275A 26167.86697329 .00007968 00000+0 15124-3 0 9996 2 66664 51.6339 301.6783 0004749 194.3570 165.7284 15.49265361571523 DUPLEX 1 66906U 98067XS 26167.86046977 .00029423 00000+0 32791-3 0 9990 2 66906 51.6288 291.1220 0003267 205.2287 154.8548 15.62565563 30608 ISS OBJECT XY 1 66912U 98067XY 26167.53822235 .00440003 92027-4 92890-3 0 9992 2 66912 51.6177 277.5424 0011021 321.6785 38.3440 15.98143913 30741 KNACKSAT-2 1 67683U 98067XZ 26167.64582772 .00039403 00000+0 48230-3 0 9991 2 67683 51.6312 297.1999 0009189 212.7793 147.2631 15.59934910 20196 CORAL 1 67684U 98067YA 26167.62635519 .00167253 00000+0 10150-2 0 9992 2 67684 51.6233 291.0222 0008719 253.9853 106.0187 15.76441199 20272 GXIBA-1 1 67685U 98067YB 26167.58465418 .00047547 00000+0 54550-3 0 9993 2 67685 51.6292 296.7870 0010383 210.9053 149.1330 15.61525288 20199 UITMSAT-2 1 67686U 98067YC 26167.59768516 .00064905 00000+0 65355-3 0 9992 2 67686 51.6277 295.3724 0005691 204.7083 155.3640 15.64775433 20214 LEOPARD 1 67687U 98067YD 26167.61031323 .00044198 00000+0 52033-3 0 9996 2 67687 51.6316 296.9728 0006339 193.0387 167.0443 15.60927221 20117 HMU-SAT2 1 67688U 98067YE 26167.65061627 .00056850 00000+0 60946-3 0 9991 2 67688 51.6297 295.7356 0005944 199.3300 160.7469 15.63238096 20133 CREW DRAGON 12 1 67796U 26031A 26167.86697329 .00007968 00000+0 15124-3 0 9994 2 67796 51.6339 301.6783 0004749 194.3570 165.7284 15.49265361571474 PROGRESS-MS 33 1 68319U 26058A 26167.86697329 .00007968 00000+0 15124-3 0 9995 2 68319 51.6339 301.6783 0004749 194.3570 165.7284 15.49265361571577 CYGNUS NG-24 1 68689U 26079A 26167.47994788 .00006936 00000+0 13276-3 0 9994 2 68689 51.6336 303.5935 0004795 192.9278 167.1588 15.49257994571569 PROGRESS-MS 34 1 68837U 26093A 26167.47994788 .00006936 00000+0 13276-3 0 9995 2 68837 51.6336 303.5935 0004795 192.9278 167.1588 15.49257994571610 TIANZHOU-10 1 69049U 26102A 26167.46514383 .00018830 00000+0 22290-3 0 9992 2 69049 41.4697 326.3961 0007507 71.1015 289.0637 15.60781847 5822 DRAGON CRS-34 1 69103U 26107A 26167.47994787 .00006936 00000+0 13276-3 0 9997 2 69103 51.6336 303.5935 0004796 192.9278 167.1588 15.49257994571674 SHENZHOU-23 (SZ-23) 1 69180U 26113A 26167.46514383 .00018830 00000+0 22290-3 0 9990 2 69180 41.4697 326.3961 0007507 71.1015 289.0637 15.60781847293119